Location: Fort Frances
(48.6170°N, 93.4170°W)
Time: 11:18:12
(UTC-06:00)

Daily predictions for brighter satellites

Satellite Brightness Start Highest point End
(mag) Time Altitude Azimuth Time Altitude Azimuth Time Altitude Azimuth
Cosmos 2322 Rocket 2.7 18:11:54 10° NNW 18:17:29 68° WSW 18:23:03 10° SSE
USA 215 3.6 18:14:29 10° NE 18:20:56 64° NNW 18:27:22 10° WSW
Tiangong 2 3.8 18:19:36 10° SW 18:21:13 14° SSW 18:22:50 10° S
Genesis I 3.9 18:19:38 10° NNW 18:23:20 37° NE 18:27:01 10° ESE
Meteor 1-20 Rocket 4.3 18:20:00 10° S 18:25:47 66° E 18:31:34 10° NNE
SJ-6B 3.2 18:22:29 10° SE 18:26:16 43° ENE 18:29:59 10° N
Cosmos 2151 Rocket 3.8 18:21:57 10° SSE 18:26:18 50° E 18:30:42 10° NNE
Okean 1 Rocket 4.3 18:24:03 10° SE 18:27:27 22° E 18:30:51 10° NE
TSX-5 4.4 18:26:36 10° S 18:29:16 25° ESE 18:32:04 10° NE
NOSS 2-2 (D) 4.0 18:26:08 10° SW 18:30:17 66° NW 18:35:20 10° NE
FENGYUN 3A 4.1 18:25:16 10° SE 18:30:18 41° ENE 18:35:21 10° N
Cosmos 1745 Rocket 4.2 18:26:53 10° S 18:33:13 85° W 18:39:31 10° N
Cosmos 2322 3.8 18:28:03 10° NNW 18:33:47 64° ENE 18:39:26 10° SE
deb Kosmos-1763 4.1 18:30:39 10° SSW 18:34:27 85° ESE 18:38:16 10° NNE
Cosmos 1238 Rocket 2.7 18:32:44 10° N 18:35:36 35° ENE 18:38:20 10° SE
Cosmos 1386 Rocket 4.4 18:32:45 10° S 18:38:51 84° E 18:44:55 10° N
NOAA 12 4.1 18:36:00 10° SSE 18:41:19 86° ENE 18:46:42 10° NNW
SKYMED 2 3.8 18:38:04 10° N 18:42:26 77° WNW 18:46:46 10° SSW
Cosmos 1025 Rocket 4.1 18:39:11 10° NNE 18:42:53 26° ENE 18:46:33 10° SE
Meteor 1-13 Rocket 4.2 18:37:33 10° N 18:43:04 64° ENE 18:48:39 10° SSE
ATLAS CENTAUR R/B 3.9 18:42:42 10° WNW 18:45:27 16° NNW 18:48:06 10° NNE
CZ-2D R/B 4.3 18:44:27 10° ESE 18:47:36 25° ENE 18:50:47 10° N
NOSS 2-2 (C) 4.5 18:43:32 10° WSW 18:47:39 50° NW 18:52:38 10° NE
COSMOS 2428 3.0 18:43:33 10° NNW 18:49:03 48° NE 18:54:33 10° SE
Okean 1-7 Rocket 4.1 18:44:57 10° N 18:49:13 38° ENE 18:53:24 10° SE
Cosmos 2237 4.3 18:43:42 10° NNW 18:49:24 59° ENE 18:55:02 10° SE
Meteor 2-4 Rocket 3.9 18:46:39 10° N 18:52:05 49° ENE 18:57:21 10° SSE
METEOR-M 4.3 18:46:55 10° SSE 18:52:16 80° WSW 18:57:40 10° NNW
Cosmos 2237 Rocket 3.4 18:48:12 10° N 18:52:44 23° NE 18:55:53 15° E
H-2A R/B 3.3 18:49:23 10° SE 18:52:47 35° ENE 18:56:14 10° N
Cosmos 1536 3.7 18:49:31 10° SSE 18:52:57 28° E 18:56:21 10° NNE
Okean 1 4.0 18:49:34 10° NNW 18:53:36 60° W 18:57:36 10° S
Cosmos 1812 4.5 18:50:12 10° NNW 18:53:47 37° W 18:57:22 10° SSW
SL-19 R/B 4.5 18:49:59 10° SE 18:55:37 60° ENE 19:01:40 10° NNW
Cosmos 1633 2.6 18:53:38 10° S 18:57:15 56° E 19:00:53 10° NNE
Cosmos 1536 Rocket 4.0 18:53:18 10° NNW 18:57:45 70° W 19:02:12 10° S
Cosmos 2360 Rocket 2.6 19:02:41 10° NNW 19:08:19 68° WSW 19:13:55 10° SSE
Cosmos 1818 3.6 19:02:58 10° SW 19:08:26 89° SE 19:13:56 10° NE
Cosmos 407 Rocket 4.0 19:04:06 10° SSW 19:09:20 66° WNW 19:14:40 10° NNE
Cosmos 2219 Rocket 2.6 19:04:45 10° NNW 19:10:02 41° NE 19:13:35 19° ESE
Cosmos 2219 3.8 19:08:35 10° S 19:13:44 35° ESE 19:18:53 10° NE
Cosmos 676 Rocket 4.1 19:08:43 10° SSW 19:13:55 82° WNW 19:19:11 10° NNE
Cosmos 1570 Rocket 3.9 19:11:45 10° NNW 19:17:01 82° ENE 19:22:15 10° SSE
Meteor 1-11 Rocket 3.7 19:17:43 10° S 19:23:32 81° E 19:29:29 10° NNE
BREEZE-M DEB (TANK) 4.3 19:22:10 10° SSW 19:23:46 15° SSE 19:23:46 15° SSE
SL-16 R/B 3.6 19:21:55 10° N 19:26:06 21° NE 19:27:20 19° ENE
Cosmos 1602 4.0 19:22:47 10° SSW 19:26:39 71° W 19:30:35 10° N
Resurs 01 Rocket 1.7 19:24:06 10° SSE 19:28:31 82° WSW 19:32:57 10° NNW
Cosmos 1140 Rocket 3.4 19:23:33 10° SSW 19:28:41 85° ESE 19:33:53 10° NNE
Cosmos 1300 Rocket 3.8 19:25:37 10° SSW 19:30:01 74° W 19:34:30 10° N
BREEZE-M DEB (TANK) 3.6 19:27:49 10° W 19:30:48 61° SSW 19:35:01 22° SE
Spot 1 3.8 19:31:44 19° SSE 19:34:38 69° ENE 19:38:48 10° N
Cosmos 614 Rocket 3.8 19:31:19 10° SSW 19:36:23 76° ESE 19:41:28 10° NNE
Cosmos 468 Rocket 4.2 19:32:23 10° NNW 19:37:30 51° ENE 19:39:26 34° ESE
ALOS 3.0 19:32:58 10° S 19:37:32 54° W 19:42:09 10° NNW
Cosmos 1833 4.4 19:35:08 10° SW 19:40:49 73° WNW 19:46:29 10° NNE
Cosmos 2327 Rocket 4.4 19:34:40 10° S 19:40:49 65° E 19:47:07 10° NNE
Spot 2 Rocket 3.9 19:38:30 10° S 19:43:31 65° WSW 19:48:35 10° NNW
Helios 1A 2.8 19:40:55 21° SSE 19:43:37 81° ENE 19:47:48 10° NNW
Cosmos 2333 Rocket 2.3 19:38:18 10° NNW 19:43:59 58° ENE 19:46:14 35° ESE
Cosmos 2208 Rocket 4.4 19:38:35 10° NNW 19:44:01 68° WSW 19:49:23 10° S
Resurs 1-3 4.0 19:41:54 10° S 19:46:15 64° WSW 19:50:38 10° NNW
USA 229 DEB 3.8 19:42:29 10° NW 19:49:38 83° SW 19:54:32 23° SE
USA 229 3.8 19:42:36 10° NW 19:49:44 84° SW 19:54:36 23° SE
Cosmos 1980 3.8 19:46:11 10° NNW 19:51:45 54° ENE 19:53:08 43° ESE
Helios 1B rocket 3.0 19:48:19 10° NNE 19:54:32 27° S 19:56:33 10° S
USA 186 3.0 19:56:00 33° NNW 19:56:00 33° NNW 19:57:45 10° NNW
Cosmos 1814 Rocket 4.0 19:50:01 10° NNW 19:55:06 54° ENE 19:55:48 49° E
CZ-4B DEB 4.2 19:56:49 28° N 19:56:49 28° N 19:58:28 10° N
Cosmos 1850 Rocket 4.0 19:50:49 10° SSW 19:56:08 88° WNW 20:01:32 10° NNE
Okean 2 3.3 19:52:33 10° N 19:56:45 87° WSW 19:58:14 39° S
Envisat 2.9 19:58:41 49° SE 19:59:49 63° ENE 20:04:51 10° N
Cosmos 2074 Rocket 4.0 19:54:00 10° S 20:00:16 87° W 20:06:37 10° N
NOSS 3-1 (A) 4.1 19:55:00 10° NW 20:02:11 57° NE 20:04:57 39° E
Cosmos 2184 Rocket 4.0 19:57:00 10° S 20:03:19 86° W 20:09:38 10° N
USA 215 4.0 19:59:48 23° NE 20:03:24 43° N 20:09:30 10° WNW
ERS-1 Rocket 3.4 20:05:24 44° NE 20:05:24 44° NE 20:09:41 10° N
Okean 1 Rocket 4.3 20:00:47 10° SSW 20:05:04 44° WNW 20:09:23 10° N
Cosmos 1892 Rocket 3.4 20:01:34 10° N 20:05:57 89° E 20:06:29 68° SSE
ATLAS 2AS CENTAUR R/B 4.0 20:00:11 10° NW 20:07:28 34° NNE 20:10:18 27° ENE
Meteor 1-5 Rocket 4.3 20:04:51 10° SSW 20:10:50 82° WNW 20:16:45 10° N
SPOT 5 4.4 20:17:56 24° NNE 20:17:56 24° NNE 20:20:27 10° N
BREEZE-M DEB (TANK) 4.3 20:13:39 10° W 20:16:21 26° SSW 20:17:19 24° S
Nadezhda 3 Rocket 3.8 20:12:42 10° N 20:18:54 84° E 20:21:25 39° SSE
Cosmos 405 Rocket 3.2 20:16:17 10° NNW 20:20:17 61° W 20:20:17 61° W
Gbstr 26 Del rocket 4.0 20:17:17 10° WSW 20:19:28 33° SW 20:19:28 33° SW
NOSS 3-1 (C) 3.9 20:14:30 10° NW 20:21:54 80° NE 20:24:23 49° SE
H-2A R/B 4.0 20:24:23 17° NNE 20:24:23 17° NNE 20:26:16 10° N
GEOS 3 Rocket 3.7 20:20:50 35° NNE 20:23:05 74° NW 20:28:20 10° SW
Cosmos 1939 Rocket 4.1 20:24:56 34° NNW 20:24:56 34° NNW 20:27:17 10° NNW
Cosmos 2341 Rocket 4.0 20:26:53 59° ENE 20:26:53 59° ENE 20:32:43 10° NNE
Cosmos 2154 Rocket 3.9 20:25:56 10° S 20:32:17 86° E 20:38:40 10° N
COSMOS 2428 4.2 20:28:09 10° NW 20:33:10 33° WSW 20:37:45 12° SSW
Cosmos 1066 Rocket 4.1 20:31:42 10° N 20:37:03 77° NNE 20:37:03 77° NNE
Cosmos 2237 Rocket 2.1 20:31:46 10° NNW 20:37:30 81° WSW 20:37:45 79° SSW
Cosmos 841 Rocket 4.0 20:37:09 10° NNW 20:41:01 50° N 20:41:01 50° N
ARGOS 4.4 20:50:59 31° N 20:50:59 31° N 20:53:54 10° N
Cosmos 2219 Rocket 3.3 20:48:50 10° NW 20:53:58 38° WSW 20:55:22 33° SW
Cosmos 1763 Rocket 4.1 20:50:33 10° NNW 20:54:30 52° NW 20:54:30 52° NW
Cosmos 2219 4.2 20:52:16 10° SW 20:57:46 46° NW 21:03:18 10° NNE
SL-16 R/B 3.1 21:05:22 10° NNW 21:09:14 45° NNW 21:09:14 45° NNW
Cosmos 2333 Rocket 3.9 21:23:10 10° NW 21:27:53 27° WSW 21:28:17 27° WSW
USA 215 4.1 21:47:09 44° NNW 21:47:09 44° NNW 21:52:03 10° WNW
ATLAS 2AS CENTAUR R/B 3.6 21:51:39 10° NW 21:57:44 53° NNW 21:57:44 53° NNW
H-2A R/B 4.4 22:05:00 19° NNW 22:05:00 19° NNW 22:06:31 10° NNW
